Home   Weather   Popayán   Past weeks
Flag for Colombia

Past Weather in Popayán, Colombia — Yesterday and Last 2 Weeks

Now
81 °F

Broken clouds.


Feels Like: 83 °F
Forecast: 76 / 57 °F
Wind: No wind

Location: Cali / Alfonso Bonillaaragon

Current Time: Jul 19, 2019 at 12:03:57 pm

Latest Report: Jul 19, 2019 at 11:00 am


Visibility: N/A

Pressure: 29.98 "Hg (24.54 "Hg at 1760m altitude)

Humidity: 62%

Dew Point: 66 °F

Location of PopayánLocation

Past Weather in Popayán — Graph

°F

Popayán Temperature Yesterday

Maximum temperature yesterday: 91 °F (at 4:00 pm)
Minimum temperature yesterday: 66 °F (at 3:00 am)
Average temperature yesterday: 76 °F

High & Low Weather Summary for the Past Weeks

 TemperatureHumidityPressure
High93 °F (Jul 17, 3:00 pm)100% (Jul 7, 6:00 am)30.12 "Hg (Jul 7, 6:00 am)
Low61 °F (Jul 17, 5:00 am)30% (Jul 17, 3:00 pm)29.83 "Hg (Jul 12, 4:00 pm)
Average75 °F73%29.98 "Hg
* Reported Jul 4 11:00 am — Jul 19 11:00 am, Popayán. Weather by CustomWeather, © 2019

Note: Actual official high and low records may vary slightly from our data, if they occured in-between our weather recording intervals... More about our weather records

Advertising

Popayán Weather History for the Previous 24 Hours

Scroll right to see more
 ConditionsComfort  
Time TempWeatherWind HumidityBarometerVisibility
11:00 am
Fri, Jul 19
81 °FBroken clouds.No wind62%29.98 "HgN/A
10:00 am79 °FPartly sunny.3 mph61%30.00 "HgN/A
9:00 am75 °FPartly sunny.3 mph74%30.00 "HgN/A
8:00 am73 °FScattered clouds.3 mph78%29.99 "HgN/A
7:00 am72 °FBroken clouds.5 mph88%29.98 "HgN/A
6:00 am70 °FPassing clouds.3 mph94%29.97 "HgN/A
5:30 am70 °FPassing clouds.2 mph94%29.97 "HgN/A
5:00 am70 °FPassing clouds.2 mph94%29.97 "HgN/A
4:00 am70 °FPassing clouds.3 mph94%29.96 "HgN/A
3:00 am70 °FPassing clouds.6 mph94%29.97 "HgN/A
2:00 am72 °FPassing clouds.5 mph83%29.97 "HgN/A
1:00 am72 °FPassing clouds.6 mph83%29.98 "HgN/A
12:00 am72 °FPassing clouds.7 mph83%29.99 "HgN/A
11:00 pm
Thu, Jul 18
75 °FPassing clouds.9 mph74%29.97 "HgN/A
10:00 pm73 °FPassing clouds.7 mph78%29.96 "HgN/A
9:00 pm77 °FPassing clouds.13 mph69%29.94 "HgN/A
8:00 pm77 °FPassing clouds.9 mph65%29.91 "HgN/A
7:00 pm79 °FPassing clouds.9 mph61%29.89 "HgN/A
6:00 pm84 °FScattered clouds.10 mph51%29.87 "HgN/A
5:00 pm88 °FScattered clouds.12 mph46%29.84 "HgN/A
4:00 pm91 °FBroken clouds.15 mph41%29.85 "HgN/A
3:00 pm90 °FScattered clouds.6 mph46%29.87 "HgN/A
2:00 pm90 °FScattered clouds.5 mph46%29.91 "HgN/A
1:00 pm88 °FScattered clouds.2 mph49%29.94 "HgN/A
12:00 pm88 °FPartly sunny.5 mph52%29.98 "HgN/A
Weather by CustomWeather, © 2019

See weather overview